Regional Weather Roundup
Issued by NWS

Home | Current Version | Previous Version | Text Only | Print | Product List | Glossary Off
Versions: 1 2 3 4 5 6 7 8 9 10 11 12 13 14 15 16 17 18 19 20 21 22 23 24 25 26 27 28 29 30 31 32 33 34 35 36 37 38 39 40 41 42 43 44 45 46 47 48 49 50

000
ASUS43 KBIS 201710
RWRND

NORTH DAKOTA REGIONAL WEATHER ROUNDUP
NATIONAL WEATHER SERVICE BISMARCK ND
1200 PM CDT WED AUG 20 2014

NOTE: "FAIR" INDICATES FEW OR NO CLOUDS BELOW 12,000 FEET WITH NO
SIGNIFICANT WEATHER AND/OR OBSTRUCTIONS TO VISIBILITY.


NDZ001>003-009>011-017-201800-
NORTHWEST NORTH DAKOTA

CITY           SKY/WX    TMP DP  RH WIND       PRES   REMARKS
WILLISTON      CLOUDY    73  64  73 CALM      29.67R
MINOT          PTSUNNY   81  63  54 SW6       29.71R
MINOT AFB      PTSUNNY   77  67  71 E7        29.70S
$$

NDZ018>021-031>035-040>046-201800-
SOUTHWEST NORTH DAKOTA

CITY           SKY/WX    TMP DP  RH WIND       PRES   REMARKS
BISMARCK       CLOUDY    76  66  71 SE10      29.73R
DICKINSON      CLOUDY    74  62  66 W7        29.70R
GARRISON         N/A     74  66  76 SE10      29.72R
HETTINGER ARPT CLOUDY    74  65  73 E12       29.72S
$$

NDZ004>008-012>016-024-026-027-054-201800-
NORTHEAST NORTH DAKOTA

CITY           SKY/WX    TMP DP  RH WIND       PRES   REMARKS
GRAND FORKS    PTSUNNY   80  66  62 S13       29.77S
GRND FRKS AFB  MOSUNNY   79  69  72 S13       29.78S
DEVILS LAKE    MOSUNNY   81  64  57 S15       29.75R
$$

NDZ022-023-025-028>030-036>039-047>053-201800-
SOUTHEAST NORTH DAKOTA

CITY           SKY/WX    TMP DP  RH WIND       PRES   REMARKS
FARGO          PTSUNNY   81  66  60 SE10      29.78F
JAMESTOWN      PTSUNNY   77  66  68 SE13      29.76S
$$



USA.gov is the U.S. government's official web portal to all federal, state and local government web resources and services.